EW7239 Weather Reports


Display with metric or nautical units.
time (UTC)temp
F
wind
direction
speed
MPH
gust
MPH
rain 1hr
in
rain 24hr
in
rain mn
in
humidity
%
barometer
mb
20180919044259 70 226 0.0 0.0 0.00 0.00 0.00 56 1009.7
20180919043756 71 226 0.0 1.0 0.00 0.00 0.00 56 1009.6
20180919043258 71 240 0.0 1.0 0.00 0.00 0.00 55 1009.6
20180919042756 71 244 0.0 0.0 0.00 0.00 0.00 55 1009.6
20180919042258 71 256 0.0 0.0 0.00 0.00 0.00 54 1009.6
20180919041758 72 257 0.0 0.0 0.00 0.00 0.00 53 1009.6
20180919041253 72 257 0.0 0.0 0.00 0.00 0.00 53 1009.5
20180919040754 73 248 0.0 0.0 0.00 0.00 0.00 52 1009.4
20180919040253 73 230 0.0 0.0 0.00 0.00 0.00 52 1009.4
20180919035753 74 248 0.0 0.0 0.00 0.00 0.00 52 1009.3
20180919035253 74 244 0.0 3.0 0.00 0.00 0.00 51 1009.3
20180919034753 74 277 0.0 3.0 0.00 0.00 0.00 51 1009.3
20180919034249 74 255 0.0 2.0 0.00 0.00 0.00 51 1009.3
20180919033749 74 294 0.0 2.0 0.00 0.00 0.00 51 1009.2
20180919033249 74 231 0.0 2.0 0.00 0.00 0.00 51 1009.1
20180919032747 74 253 0.0 3.0 0.00 0.00 0.00 50 1009.1
20180919032246 74 263 0.0 3.0 0.00 0.00 0.00 50 1009.0
20180919031746 74 252 0.0 1.0 0.00 0.00 0.00 50 1009.0
20180919031243 75 279 0.0 1.0 0.00 0.00 0.00 49 1009.0
20180919030743 75 264 0.0 3.0 0.00 0.00 0.00 49 1008.8
20180919030238 75 252 0.0 3.0 0.00 0.00 0.00 48 1008.8
20180919025733 75 242 0.0 3.0 0.00 0.00 0.00 48 1008.7
20180919025232 75 242 0.0 1.0 0.00 0.00 0.00 47 1008.6
20180919024731 76 246 0.0 2.0 0.00 0.00 0.00 47 1008.6
20180919024229 76 222 0.0 6.0 0.00 0.00 0.00 47 1008.6
20180919023729 76 278 0.0 6.0 0.00 0.00 0.00 46 1008.5
20180919023227 77 241 0.0 3.0 0.00 0.00 0.00 45 1008.5
20180919022728 77 252 0.0 5.0 0.00 0.00 0.00 44 1008.4
20180919022226 77 236 0.0 5.0 0.00 0.00 0.00 43 1008.4
20180919021727 77 259 0.0 0.0 0.00 0.00 0.00 42 1008.4
20180919021229 78 225 0.0 0.0 0.00 0.00 0.00 41 1008.4
20180919020726 78 237 0.0 0.0 0.00 0.00 0.00 40 1008.3
20180919020226 78 236 0.0 0.0 0.00 0.00 0.00 38 1008.3
20180919015728 79 228 0.0 1.0 0.00 0.00 0.00 37 1008.3
20180919015221 79 236 0.0 1.0 0.00 0.00 0.00 35 1008.3
20180919014722 80 221 0.0 6.0 0.00 0.00 0.00 32 1008.3
20180919014223 81 0 0.0 6.0 0.00 0.00 0.00 30 1008.3
20180919013724 81 0 0.0 3.0 0.00 0.00 0.00 28 1008.4
20180919013222 82 0 0.0 5.0 0.00 0.00 0.00 26 1008.3
20180919012718 82 246 1.0 8.0 0.00 0.00 0.00 26 1008.3
20180919012220 83 266 1.0 8.0 0.00 0.00 0.00 24 1008.1
20180919011717 83 239 1.0 8.0 0.00 0.00 0.00 23 1008.1
20180919011217 84 242 0.0 8.0 0.00 0.00 0.00 22 1008.1
20180919010718 84 219 0.0 8.0 0.00 0.00 0.00 22 1008.1
20180919010216 84 225 1.0 8.0 0.00 0.00 0.00 21 1008.0
20180919005715 84 212 1.0 5.0 0.00 0.00 0.00 21 1008.0
20180919005213 85 236 0.0 4.0 0.00 0.00 0.00 21 1008.0
20180919004717 86 229 0.0 7.0 0.00 0.00 0.00 19 1007.9
20180919004214 86 234 0.0 7.0 0.00 0.00 0.00 20 1007.9
20180919003709 86 225 0.0 7.0 0.00 0.00 0.00 19 1008.0
20180919003209 86 261 1.0 13.0 0.00 0.00 0.00 20 1008.0
20180919002710 86 230 1.0 13.0 0.00 0.00 0.00 20 1008.0
20180919002206 87 0 1.0 13.0 0.00 0.00 0.00 20 1008.0
20180919001703 87 239 1.0 13.0 0.00 0.00 0.00 19 1008.0
20180919001204 87 219 1.0 12.0 0.00 0.00 0.00 20 1008.1
20180919000703 88 226 1.0 11.0 0.00 0.00 0.00 19 1008.1
20180919000202 88 250 1.0 10.0 0.00 0.00 0.00 19 1008.1
20180918235702 88 245 0.0 10.0 0.00 0.00 0.00 19 1008.3
20180918235205 89 234 0.0 1.0 0.00 0.00 0.00 19 1008.3
20180918234704 89 241 1.0 10.0 0.00 0.00 0.00 20 1008.3
20180918234204 89 238 1.0 10.0 0.00 0.00 0.00 20 1008.3
20180918233703 89 234 1.0 8.0 0.00 0.00 0.00 20 1008.3
20180918233159 89 244 1.0 11.0 0.00 0.00 0.00 20 1008.3
20180918232659 90 233 1.0 11.0 0.00 0.00 0.00 20 1008.3
20180918232154 90 229 1.0 9.0 0.00 0.00 0.00 20 1008.3
20180918231656 90 229 1.0 6.0 0.00 0.00 0.00 21 1008.3
20180918231152 90 257 1.0 6.0 0.00 0.00 0.00 21 1008.3
20180918230653 90 0 0.0 6.0 0.00 0.00 0.00 21 1008.4
20180918230152 89 0 0.0 4.0 0.00 0.00 0.00 22 1008.4
20180918225652 90 0 1.0 12.0 0.00 0.00 0.00 22 1008.5
20180918225152 90 0 1.0 12.0 0.00 0.00 0.00 22 1008.6
20180918224652 90 240 0.0 9.0 0.00 0.00 0.00 21 1008.6
20180918224148 91 234 0.0 8.0 0.00 0.00 0.00 21 1008.6
20180918223649 91 209 0.0 8.0 0.00 0.00 0.00 21 1008.7
20180918223146 92 254 1.0 10.0 0.00 0.00 0.00 21 1008.7
20180918222647 92 212 1.0 10.0 0.00 0.00 0.00 20 1008.7
20180918222144 92 202 0.0 8.0 0.00 0.00 0.00 21 1008.8
20180918221644 93 220 0.0 8.0 0.00 0.00 0.00 18 1008.8
20180918221146 92 256 0.0 4.0 0.00 0.00 0.00 18 1008.8
20180918220648 92 240 0.0 3.0 0.00 0.00 0.00 18 1008.9
20180918220145 93 229 0.0 3.0 0.00 0.00 0.00 17 1009.0
20180918215643 93 216 0.0 4.0 0.00 0.00 0.00 17 1009.0
20180918215143 92 250 0.0 4.0 0.00 0.00 0.00 17 1009.1
20180918214645 92 236 0.0 5.0 0.00 0.00 0.00 18 1009.2
20180918214142 92 275 0.0 5.0 0.00 0.00 0.00 18 1009.3
20180918213642 93 240 0.0 4.0 0.00 0.00 0.00 18 1009.3
20180918213143 93 259 0.0 5.0 0.00 0.00 0.00 18 1009.3
20180918212643 93 273 0.0 5.0 0.00 0.00 0.00 18 1009.4
20180918212156 92 239 0.0 6.0 0.00 0.00 0.00 21 1009.4
20180918211819 91 254 1.0 7.0 0.00 0.00 0.00 22 1009.6
20180918211222 92 256 0.0 7.0 0.00 0.00 0.00 22 1009.6
20180918210644 92 229 0.0 5.0 0.00 0.00 0.00 21 1009.6
20180918205921 91 224 0.0 6.0 0.00 0.00 0.00 19 1009.8
20180918203142 89 239 0.0 8.0 0.00 0.00 0.00 21 1010.1
20180918202642 89 236 0.0 8.0 0.00 0.00 0.00 20 1010.3
20180918202143 90 281 0.0 8.0 0.00 0.00 0.00 19 1010.3
20180918201639 90 234 0.0 1.0 0.00 0.00 0.00 19 1010.4
20180918201138 90 257 0.0 0.0 0.00 0.00 0.00 19 1010.5
20180918200640 90 283 0.0 1.0 0.00 0.00 0.00 19 1010.6
20180918200137 89 275 0.0 1.0 0.00 0.00 0.00 18 1010.6
20180918195635 89 238 0.0 2.0 0.00 0.00 0.00 17 1010.7
20180918195136 89 233 0.0 2.0 0.00 0.00 0.00 15 1010.7
20180918194632 89 180 0.0 1.0 0.00 0.00 0.00 14 1010.8
20180918194131 89 232 0.0 2.0 0.00 0.00 0.00 12 1010.9
20180918193633 89 273 0.0 2.0 0.00 0.00 0.00 13 1010.9
20180918193126 88 273 0.0 0.0 0.00 0.00 0.00 15 1011.0
20180918192623 88 213 0.0 0.0 0.00 0.00 0.00 18 1011.0
20180918192124 87 144 0.0 2.0 0.00 0.00 0.00 16 1011.2
20180918191622 87 194 0.0 2.0 0.00 0.00 0.00 18 1011.2
20180918191119 86 144 0.0 1.0 0.00 0.00 0.00 17 1011.2
20180918190618 85 0.0 0.0 0.00 0.00 0.00 20
20180918185514 85 261 0.0 3.0 0.00 0.00 0.00 20 1011.4
20180918185014 85 229 0.0 3.0 0.00 0.00 0.00 22 1011.4
20180918184514 85 209 0.0 0.0 0.00 0.00 0.00 23 1011.4
20180918184013 84 215 0.0 0.0 0.00 0.00 0.00 25 1011.5
20180918183506 84 257 0.0 0.0 0.00 0.00 0.00 24 1011.6
20180918183005 83 244 0.0 0.0 0.00 0.00 0.00 25 1011.7
20180918182506 83 267 0.0 3.0 0.00 0.00 0.00 27 1011.8
20180918182004 83 235 0.0 3.0 0.00 0.00 0.00 27 1011.8
20180918181503 82 276 0.0 0.0 0.00 0.00 0.00 28 1011.9
20180918180959 81 259 0.0 0.0 0.00 0.00 0.00 28 1011.9
20180918180458 81 259 0.0 0.0 0.00 0.00 0.00 29 1011.9
20180918175959 80 247 0.0 0.0 0.00 0.00 0.00 30 1012.0
20180918175456 80 252 0.0 0.0 0.00 0.00 0.00 32 1012.0
20180918174957 79 246 0.0 1.0 0.00 0.00 0.00 33 1012.1
20180918174458 79 234 0.0 1.0 0.00 0.00 0.00 34 1012.1
20180918173955 79 251 0.0 0.0 0.00 0.00 0.00 34 1012.2
20180918173456 78 251 0.0 0.0 0.00 0.00 0.00 35 1012.2
20180918172954 78 254 0.0 0.0 0.00 0.00 0.00 35 1012.2
20180918172454 78 238 0.0 0.0 0.00 0.00 0.00 37 1012.3
20180918171952 77 236 0.0 0.0 0.00 0.00 0.00 37 1012.3
20180918171452 76 202 0.0 0.0 0.00 0.00 0.00 37 1012.5
20180918170953 76 238 0.0 0.0 0.00 0.00 0.00 38 1012.5
20180918170452 75 230 0.0 1.0 0.00 0.00 0.00 38 1012.6
20180918165948 75 190 0.0 1.0 0.00 0.00 0.00 40 1012.6
20180918165448 74 235 0.0 0.0 0.00 0.00 0.00 41 1012.7
20180918164948 74 211 0.0 1.0 0.00 0.00 0.00 41 1012.7
20180918164446 74 224 0.0 1.0 0.00 0.00 0.00 41 1012.6
20180918163947 73 217 0.0 0.0 0.00 0.00 0.00 42 1012.7
20180918163448 73 206 0.0 3.0 0.00 0.00 0.00 42 1012.6
20180918162945 72 197 0.0 3.0 0.00 0.00 0.00 43 1012.7
20180918162445 72 238 0.0 0.0 0.00 0.00 0.00 44 1012.7
20180918161946 72 223 0.0 0.0 0.00 0.00 0.00 44 1012.7
20180918161439 71 202 0.0 0.0 0.00 0.00 0.00 45 1012.6
20180918160939 71 202 0.0 0.0 0.00 0.00 0.00 44 1012.7
20180918160438 71 240 0.0 0.0 0.00 0.00 0.00 44 1012.6
20180918155939 71 227 0.0 0.0 0.00 0.00 0.00 43 1012.7
20180918155438 71 205 0.0 0.0 0.00 0.00 0.00 43 1012.6
20180918154939 71 227 0.0 0.0 0.00 0.00 0.00 42 1012.6
20180918154440 70 104 0.0 0.0 0.00 0.00 0.00 40 1012.6
20180918153939 70 104 0.0 0.0 0.00 0.00 0.00 40 1012.6
20180918153439 69 104 0.0 1.0 0.00 0.00 0.00 40 1012.6
20180918152938 69 104 0.0 1.0 0.00 0.00 0.00 41 1012.6
20180918152437 68 105 0.0 0.0 0.00 0.00 0.00 42 1012.6
20180918151937 67 0 0.0 0.0 0.00 0.00 0.00 42 1012.6
20180918151431 67 0 0.0 0.0 0.00 0.00 0.00 43 1012.6
20180918150929 66 0 0.0 0.0 0.00 0.00 0.00 43 1012.6
20180918150429 65 0 0.0 0.0 0.00 0.00 0.00 46 1012.6
20180918145928 65 0 0.0 0.0 0.00 0.00 0.00 47 1012.6
20180918145424 63 0 0.0 0.0 0.00 0.00 0.00 50 1012.7
20180918144925 62 0 0.0 0.0 0.00 0.00 0.00 53 1012.7
20180918144423 61 0 0.0 0.0 0.00 0.00 0.00 61 1012.7
20180918143922 61 0 0.0 0.0 0.00 0.00 0.00 65 1012.6
20180918143423 61 132 0.0 0.0 0.00 0.00 0.00 65 1012.5
20180918142924 60 131 0.0 0.0 0.00 0.00 0.00 65 1012.5
20180918142421 60 128 0.0 0.0 0.00 0.00 0.00 65 1012.5
20180918141921 60 132 0.0 0.0 0.00 0.00 0.00 65 1012.3
20180918141423 60 132 0.0 0.0 0.00 0.00 0.00 65 1012.2
20180918140915 60 0 0.0 0.0 0.00 0.00 0.00 65 1012.2
20180918140413 60 0 0.0 0.0 0.00 0.00 0.00 65 1012.1
20180918135918 60 0 0.0 0.0 0.00 0.00 0.00 65 1012.1
20180918135413 60 0 0.0 0.0 0.00 0.00 0.00 63 1012.0
20180918134912 61 0 0.0 0.0 0.00 0.00 0.00 63 1012.0
20180918134412 61 0 0.0 0.0 0.00 0.00 0.00 63 1012.0
20180918133911 61 0 0.0 0.0 0.00 0.00 0.00 63 1011.9
20180918132937 61 0 0.0 0.0 0.00 0.00 0.00 64 1011.9
20180918132557 61 0 0.0 0.0 0.00 0.00 0.00 64 1011.8
20180918131328 61 0 0.0 0.0 0.00 0.00 0.00 63 1011.7
20180918094343 65 258 0.0 0.0 0.00 0.00 0.00 52 1012.0
20180918093842 64 258 0.0 0.0 0.00 0.00 0.00 53 1011.9
20180918093340 64 258 0.0 0.0 0.00 0.00 0.00 55 1011.9
20180918092838 64 258 0.0 0.0 0.00 0.00 0.00 54 1011.8
20180918092339 64 258 0.0 0.0 0.00 0.00 0.00 53 1011.8
20180918091339 64 258 0.0 0.0 0.00 0.00 0.00 53 1011.9
20180918090839 64 258 0.0 0.0 0.00 0.00 0.00 53 1011.8
20180918090340 64 258 0.0 0.0 0.00 0.00 0.00 53 1011.9
20180918085840 64 258 0.0 0.0 0.00 0.00 0.00 53 1011.9
20180918085340 63 258 0.0 0.0 0.00 0.00 0.00 54 1012.0
20180918084839 63 0 0.0 0.0 0.00 0.00 0.00 53 1012.1
20180918084340 63 0 0.0 0.0 0.00 0.00 0.00 53 1012.1
20180918083838 64 0 0.0 0.0 0.00 0.00 0.00 53 1012.2
20180918083339 64 0 0.0 0.0 0.00 0.00 0.00 54 1012.2
20180918082841 64 0 0.0 0.0 0.00 0.00 0.00 52 1012.2
20180918082338 64 0 0.0 0.0 0.00 0.00 0.00 52 1012.2
20180918081838 64 258 0.0 0.0 0.00 0.00 0.00 52 1012.3
20180918081338 64 258 0.0 0.0 0.00 0.00 0.00 52 1012.3
20180918080840 63 258 0.0 0.0 0.00 0.00 0.00 52 1012.2
20180918080340 64 258 0.0 0.0 0.00 0.00 0.00 51 1012.3
20180918075840 64 258 0.0 0.0 0.00 0.00 0.00 50 1012.2
20180918075335 65 258 0.0 0.0 0.00 0.00 0.00 50 1012.3
20180918074836 65 258 0.0 0.0 0.00 0.00 0.00 50 1012.3
20180918074335 65 258 0.0 0.0 0.00 0.00 0.00 49 1012.3
20180918073842 65 258 0.0 0.0 0.00 0.00 0.00 50 1012.3
20180918073334 65 258 0.0 0.0 0.00 0.00 0.00 50 1012.3
20180918072833 65 258 0.0 0.0 0.00 0.00 0.00 50 1012.2
20180918072333 65 257 0.0 0.0 0.00 0.00 0.00 50 1012.2
20180918071832 65 258 0.0 0.0 0.00 0.00 0.00 49 1012.2
20180918071328 66 258 0.0 0.0 0.00 0.00 0.00 48 1012.2
20180918070828 66 258 0.0 0.0 0.00 0.00 0.00 49 1012.3
20180918070324 66 258 0.0 0.0 0.00 0.00 0.00 48 1012.3
20180918065823 66 258 0.0 0.0 0.00 0.00 0.00 47 1012.3
20180918065323 67 258 0.0 0.0 0.00 0.00 0.00 47 1012.3
20180918064822 67 258 0.0 0.0 0.00 0.00 0.00 47 1012.2
20180918064322 67 258 0.0 0.0 0.00 0.00 0.00 46 1012.2
20180918063823 67 258 0.0 0.0 0.00 0.00 0.00 46 1012.2
20180918063319 68 258 0.0 0.0 0.00 0.00 0.00 45 1012.2
20180918062818 68 258 0.0 0.0 0.00 0.00 0.00 45 1012.1
20180918062316 68 258 0.0 0.0 0.00 0.00 0.00 45 1012.2
20180918061815 68 258 0.0 0.0 0.00 0.00 0.00 45 1012.2
20180918061314 68 258 0.0 0.0 0.00 0.00 0.00 44 1012.1
20180918060813 68 258 0.0 0.0 0.00 0.00 0.00 44 1012.1
20180918060312 68 258 0.0 0.0 0.00 0.00 0.00 44 1012.0
20180918055810 68 258 0.0 0.0 0.00 0.00 0.00 44 1012.0
20180918055310 68 258 0.0 0.0 0.00 0.00 0.00 44 1012.0
20180918054808 68 258 0.0 0.0 0.00 0.00 0.00 44 1012.0
20180918054306 69 258 0.0 0.0 0.00 0.00 0.00 43 1012.0
20180918053805 69 258 0.0 0.0 0.00 0.00 0.00 43 1012.0
20180918053307 69 258 0.0 0.0 0.00 0.00 0.00 42 1011.9
20180918052806 70 258 0.0 0.0 0.00 0.00 0.00 40 1011.9
20180918052305 70 258 0.0 0.0 0.00 0.00 0.00 40 1011.8
20180918051804 70 258 0.0 0.0 0.00 0.00 0.00 40 1011.7
20180918051303 70 258 0.0 0.0 0.00 0.00 0.00 40 1011.7
20180918050802 70 258 0.0 0.0 0.00 0.00 0.00 40 1011.7
20180918050303 70 258 0.0 0.0 0.00 0.00 0.00 40 1011.7
20180918045759 70 258 0.0 0.0 0.00 0.00 0.00 41 1011.7
20180918045258 70 216 0.0 0.0 0.00 0.00 0.00 42 1011.7
20180918044758 70 216 0.0 0.0 0.00 0.00 0.00 42 1011.6